Location: Unspecified
(44.4377°N, 88.0525°W)
Time: 09:45:05
(UTC-05:00)

CZ-3 Stage 3 - Visible Passes

Search period start: 23 April 2014 00:00
Search period end: 03 May 2014 00:00
Orbit: 474 x 34782 km, 30.6° (Epoch: 21 April)

Date Brightness Start Highest point End Pass type
(mag) Time Alt. Az. Time Alt. Az. Time Alt. Az.
23 Apr 5.5 03:34:50 28° SW 03:40:50 35° S 07:16:34 10° SSE visible
24 Apr 6.5 00:08:50 12° ESE 00:08:50 12° ESE 00:09:59 10° ESE visible
26 Apr 5.6 03:33:49 27° SW 03:40:20 34° S 07:16:27 10° SSE visible
27 Apr 6.5 00:07:48 12° ESE 00:07:48 12° ESE 00:09:32 10° ESE visible
29 Apr 5.7 03:32:48 26° SW 03:39:51 32° S 07:13:18 10° SSE visible
30 Apr 6.5 00:06:48 13° ESE 00:06:48 13° ESE 00:09:03 10° ESE visible
02 May 5.8 03:31:48 24° SW 03:39:23 31° S 07:08:00 10° SSE visible
